Flag for U.S.A. Weather past 2 weeks in Metairie, Louisiana, U.S.A.

Now
87 °F

Scattered clouds.


Feels Like: 87 °F
Forecast: 75 / 87 °F
Wind: 9 mph from North

Location: New Orleans International Airport

Current Time: Jul 30, 2014 at 5:07:35 PM

Latest Report: Jul 30, 2014 at 3:53 PM


Visibility: 10 mi

Pressure: 30.02 "Hg

Humidity: 42%

Dew point: 61 °F

Location of MetairieLocation

Historic Weather in Metairie — Graph

°F

Metairie temperature yesterday

Maximum temperature yesterday: 89 °F (at 12:53 PM)
Minimum temperature yesterday: 79 °F (at 5:53 AM)
Average temperature yesterday: 84 °F

Past Weeks' High & Low Weather Summary

 TemperatureHumidityPressure
High94 °F (Jul 27, 3:53 PM)97% (Jul 21, 3:53 AM)30.12 "Hg (Jul 21, 3:53 AM)
Low73 °F (Jul 17, 5:53 AM)42% (Jul 30, 3:53 PM)29.92 "Hg (Jul 15, 5:53 PM)
Average82 °F74%30.01 "Hg
* Reported Jul 15 3:53 PM — Jul 30 3:53 PM, Metairie, Weather by CustomWeather, © 2014

Note: Actual official high and low records may vary slightly from our data, if they occured in-between our weather recording intervals... More about our weather records

Advertising

Metairie weather history for previous 24 hours

 ConditionsComfort  
Time TempWeatherWind HumidityBarometerVisibility
3:53 PM
Jul 30
87 °FScattered clouds.9 mph42%30.02 "Hg10 mi
2:53 PM86 °FScattered clouds.14 mph43%30.03 "Hg10 mi
1:53 PM85 °FScattered clouds.7 mph45%30.05 "Hg10 mi
12:53 PM85 °FPartly sunny.7 mph46%30.06 "Hg10 mi
11:53 AM85 °FPartly sunny.12 mph45%30.08 "Hg10 mi
10:53 AM84 °FPassing clouds.10 mph48%30.09 "Hg10 mi
9:53 AM83 °FPassing clouds.9 mph48%30.08 "Hg10 mi
8:53 AM80 °FPassing clouds.13 mph56%30.08 "Hg10 mi
7:53 AM78 °FPassing clouds.7 mph58%30.08 "Hg10 mi
6:53 AM75 °FPassing clouds.5 mph64%30.07 "Hg10 mi
5:53 AM75 °FPassing clouds.9 mph66%30.06 "Hg10 mi
4:53 AM76 °FPassing clouds.10 mph67%30.05 "Hg10 mi
3:53 AM77 °FPassing clouds.13 mph69%30.04 "Hg10 mi
2:53 AM79 °FPassing clouds.13 mph60%30.03 "Hg10 mi
1:53 AM79 °FPassing clouds.12 mph60%30.04 "Hg10 mi
12:53 AM81 °FPassing clouds.16 mph60%30.05 "Hg10 mi
11:53 PM
Jul 29
81 °FPassing clouds.13 mph65%30.05 "Hg10 mi
10:53 PM81 °FPassing clouds.5 mph56%30.04 "Hg10 mi
9:53 PM80 °FPassing clouds.6 mph56%30.03 "Hg10 mi
8:53 PM81 °FPartly sunny.6 mph54%30.02 "Hg10 mi
7:53 PM83 °FPartly sunny.3 mph51%30.01 "Hg10 mi
6:53 PM86 °FBroken clouds.6 mph48%30.01 "Hg10 mi
5:53 PM88 °FBroken clouds.6 mph46%30.02 "Hg10 mi
Weather by CustomWeather, © 2014

See weather overviewHow to use our weather pages